Regional Weather Roundup
Issued by NWS Jackson, KY

Home | Current Version | Previous Version | Graphics & Text | Print | Product List | Glossary On
Versions: 1 2 3 4 5 6 7 8 9 10 11 12 13 14 15 16 17 18 19 20 21 22 23 24 25 26 27 28 29 30 31 32 33 34 35 36 37 38 39 40 41 42 43 44 45 46 47 48 49 50
000
ASUS43 KJKL 252310
RWRJKL

EAST KENTUCKY HOURLY WEATHER ROUNDUP
NATIONAL WEATHER SERVICE JACKSON KY
600 PM EST SAT FEB 25 2017

NOTE: "FAIR" INDICATES FEW OR NO CLOUDS BELOW 12,000 FEET WITH
NO SIGNIFICANT WEATHER AND/OR OBSTRUCTIONS TO VISIBILITY.

* THESE REPORTS ARE NOT UNDER NWS QUALITY CONTROL AND MAY NOT
  REPORT WEATHER SUCH AS PRECIPITATION AND FOG.

KYZ079-080-083-085-087-088-110-112-115-119-120-260000
...EASTERN KENTUCKY...

CITY           SKY/WX    TMP DP  RH WIND       PRES   REMARKS
JACKSON        CLEAR     37  19  48 NW12      29.96R WCI  29
LONDON         CLEAR     39  19  44 W13       29.99R WCI  31
SOMERSET*      CLEAR     36  19  51 W15       30.05R WCI  26
MONTICELLO*    CLEAR     38  21  50 NW16      30.05R WCI  29
WILLIAMSBURG*  CLEAR     39  19  45 W8        30.00R WCI  34
MIDDLESBORO*   CLEAR     43  20  40 NW15G21   29.98R
HARLAN APT*    CLEAR     41  18  38 W13G20    29.96R
PIKE CO APT*     N/A     38  21  50 W12G20    29.93R WCI  31
BIG SANDY APT* PTCLDY    37  22  54 NW9       29.95R WCI  31
MOREHEAD APT*  MOCLDY    34  18  51 W15       30.01R WCI  24
ASHLAND*       CLOUDY    37  25  60 NW9G18    29.96R WCI  31
$$

KYZ035-036-041-042-044-050-067-078-099-260000
...CENTRAL KENTUCKY...

CITY           SKY/WX    TMP DP  RH WIND       PRES   REMARKS
FLEMING/MASON* CLOUDY    32  19  59 W16G23    30.01R WCI  21
DANVILLE*      MOCLDY    34  19  55 W10G17    30.04R WCI  26
LEXINGTON      MOCLDY    35  18  49 W12       30.01R WCI  27
FRANKFORT      PTCLDY    36  17  46 VRB7      30.01R WCI  30
LOUISVILLE     PTCLDY    38  16  40 W15       30.03R WCI  29
LEBANON*         N/A     36  18  48 W10G16    30.04R WCI  28
GLASGOW*       CLEAR     39  19  44 NW9       30.05S WCI  33
BOWLING GREEN  CLEAR     42  17  36 NW8       30.07R
$$

KYZ091>093-OHZ055-061-077-WVZ005-015-034-035-042-260000
...SOUTHERN OHIO/WEST VIRGINIA...

CITY           SKY/WX    TMP DP  RH WIND       PRES   REMARKS
COVINGTON      CLOUDY    32  19  58 W10       29.99R WCI  24
COLUMBUS       CLOUDY    31  20  63 W20G32    29.93R WCI  19
DAYTON         FLURRIES  28  18  66 W17       29.96R WCI  16
WILMINGTON     CLOUDY    29  18  63 W16G25    29.96R WCI  17
HUNTINGTON     CLOUDY    36  21  54 W13G21    29.96R WCI  27
CHARLESTON     PTCLDY    38  21  50 W13G28    29.91R WCI  30
PINEVILLE*     PTCLDY    43  18  37 MISG      29.90R
BECKLEY        PTCLDY    39  22  50 W13G23    29.80R WCI  31
BLUEFIELD      CLEAR     40  23  50 NW15G28   29.78R WCI  32
LOGAN CO APT*    N/A     39  21  48 W9G16     29.89R WCI  33
$$

VAZ002-007-008-TNZ017-027-036-066-071-260000
...SOUTHWEST VIRGINIA/EAST TENNESSEE...

CITY           SKY/WX    TMP DP  RH WIND       PRES   REMARKS
WISE*          CLEAR     37  18  44 W15G25    29.89R WCI  28
JONESVILLE*      N/A     43  21  42 W10G16    29.96R
ABINGDON*      CLEAR     46  19  32 NW17G28   29.85R
BRISTOL        PTCLDY    47  24  40 W15G25    29.88R
MORRISTOWN*    CLEAR     46  21  36 NW16G23   29.92R
SEVIERVILLE*   CLEAR     48  19  32 W14       29.93R
KNOXVILLE      PTCLDY    49  16  26 NW16G22   29.95R
LAFOLLETTE*    CLEAR     43  18  36 VRB6G13   30.00R
OAK RIDGE      CLEAR     48  19  31 W10G21    29.99R
CROSSVILLE     CLEAR     40  15  36 W12G17    29.98R WCI  33
NASHVILLE      PTCLDY    47  15  27 NW10G20   30.05R
$$

...KEY TO REMARKS...
VSB - VISIBILITY IN MILES
WCI - WIND CHILL INDEX
HX  - HEAT INDEX

$$



USA.gov is the U.S. government's official web portal to all federal, state and local government web resources and services.